Location: *
(50.9167°S, 179.4000°W)
Time: 21:00:28
(UTC+00:00)

ATLAS 5 CENTAUR R/B - Pass Details

Date: 03 March 2024
Orbit: 425 x 1174 km, 63.3° (Epoch: 15 April)

Event Time Altitude Azimuth Distance (km) Brightness Sun altitude
Rises 14:11:47 0° 227° (SW) 3,810 5.7 -26.8°
Reaches altitude 10° 14:14:44 10° 222° (SW) 2,746 5.0 -26.6°
Maximum altitude 14:21:01 54° 145° (SE) 1,015 2.9 -26.0°
Drops below altitude 10° 14:26:02 10° 67° (ENE) 2,209 4.5 -25.5°
Sets 14:28:12 0° 62° (ENE) 3,011 5.2 -25.3°
